User: anonymous   Login
Location: Unspecified
(0.0000°N, 0.0000°E)
Time: 07:12:38
(UTC+00:00)
Language:

MOZHAYETS 4 - Orbit

View from above orbital plane
View from above orbital plane
View from above satellite
View from above satellite

Ground track
Ground track

The orbit data is extracted from the following two-line orbital elements,

1 27939U 03042A   18348.19814548  .00000086  00000-0  23920-4 0  9997
2 27939  98.0146 122.9744 0011624 300.9863  59.0202 14.66739269813207
Epoch (UTC): 14 December 2018 04:45:19
Eccentricity: 0.0011624
inclination: 98.0146°
perigee height: 663 km
apogee height: 679 km
right ascension of ascending node: 122.9744°
argument of perigee: 300.9863°
revolutions per day: 14.66739269
mean anomaly at epoch: 59.0202°
orbit number at epoch: 81320

The dashed part of the orbit path shows where the satellite is in the earth's shadow,  

DLR